FW1555 Weather Reports


Display with metric or nautical units.
time (UTC)temp
F
wind
direction
speed
MPH
gust
MPH
rain 1hr
in
rain 24hr
in
rain mn
in
humidity
%
barometer
mb
20260905114557 63 0 0.0 0.0 0.00 0.00 0.00 94 1011.1
20260905113101 62 0 0.0 0.0 0.00 0.00 0.00 94 1010.9
20260905111558 62 0 0.0 0.0 0.00 0.00 0.00 94 1010.5
20260905110049 62 0 0.0 0.0 0.00 0.00 0.00 93 1010.3
20260905104558 62 0 0.0 0.0 0.00 0.00 0.00 91 1010.1
20260905103055 63 0 0.0 0.0 0.00 0.00 0.00 91 1010.2
20260905101608 63 0 0.0 0.0 0.00 0.00 0.00 91 1010.1
20260905100050 63 0 0.0 0.0 0.00 0.00 0.00 90 1010.0
20260905094550 64 0 0.0 0.0 0.00 0.00 0.00 89 1009.9
20260905093100 64 0 0.0 0.0 0.00 0.00 0.00 88 1009.7
20260905091626 65 0 0.0 0.0 0.00 0.00 0.00 87 1009.7
20260905090048 66 0 0.0 0.0 0.00 0.00 0.00 85 1009.8
20260905084616 66 0 0.0 0.0 0.00 0.00 0.00 84 1009.6
20260905083101 67 0 0.0 0.0 0.00 0.00 0.00 83 1009.6
20260905081600 68 0 0.0 0.0 0.00 0.00 0.00 83 1009.6
20260905080100 68 0 0.0 0.0 0.00 0.00 0.00 83 1009.7
20260905074559 69 0 0.0 0.0 0.00 0.00 0.00 82 1009.7
20260905073053 69 0 0.0 0.0 0.00 0.00 0.00 81 1009.6
20260905071604 69 0 0.0 0.0 0.00 0.00 0.00 80 1009.5
20260905070113 70 0 0.0 0.0 0.00 0.00 0.00 79 1009.4
20260905064557 70 0 0.0 0.0 0.00 0.00 0.00 79 1009.7
20260905063055 70 0 0.0 0.0 0.00 0.00 0.00 80 1009.8
20260905061554 70 0 0.0 0.0 0.00 0.00 0.00 80 1009.9
20260905060101 70 0 0.0 0.0 0.00 0.00 0.00 80 1009.9
20260905054600 70 0 0.0 0.0 0.00 0.00 0.00 82 1010.0
20260905053101 70 0 0.0 0.0 0.00 0.00 0.00 82 1010.2
20260905051551 70 0 0.0 0.0 0.00 0.00 0.00 82 1010.6
20260905050050 70 0 0.0 0.0 0.00 0.00 0.00 82 1010.6
20260905044559 70 0 0.0 0.0 0.00 0.00 0.00 83 1010.6
20260905043056 70 0 0.0 0.0 0.00 0.00 0.00 81 1010.8
20260905041550 71 0 0.0 0.0 0.00 0.00 0.00 81 1010.8
20260905040048 71 0 0.0 0.0 0.00 0.00 0.00 81 1010.7
20260905034554 71 0 0.0 0.0 0.00 0.00 0.00 80 1010.8
20260905033055 72 0 0.0 0.0 0.00 0.00 0.00 79 1010.6
20260905031556 72 0 0.0 0.0 0.00 0.00 0.00 79 1010.7
20260905030104 72 0 0.0 0.0 0.00 0.00 0.00 79 1010.9
20260905024630 71 0 0.0 0.0 0.00 0.00 0.00 80 1010.8
20260905023058 70 0 0.0 0.0 0.00 0.00 0.00 82 1010.7
20260905021601 70 0 0.0 0.0 0.00 0.00 0.00 82 1010.7
20260905020051 69 0 0.0 0.0 0.00 0.00 0.00 83 1010.9
20260905014558 69 0 0.0 0.0 0.00 0.00 0.00 84 1010.8
20260905013054 69 0 0.0 0.0 0.00 0.00 0.00 84 1010.7
20260905011557 70 0 0.0 0.0 0.00 0.00 0.00 84 1010.6
20260905010048 71 0 0.0 0.0 0.00 0.00 0.00 81 1010.8
20260905004603 72 0 0.0 0.0 0.00 0.00 0.00 80 1010.8
20260905003054 74 0 0.0 0.0 0.00 0.00 0.00 75 1010.4
20260905001552 75 0 0.0 0.0 0.00 0.00 0.00 73 1010.4
20260905000101 76 0 0.0 0.0 0.00 0.00 0.00 72 1010.4
20260904234559 76 0 0.0 0.0 0.00 0.00 0.00 71 1010.6
20260904233101 77 0 0.0 0.0 0.00 0.00 0.00 69 1010.4
20260904231553 79 0 0.0 1.0 0.00 0.00 0.00 66 1010.4
20260904230101 80 259 0.0 4.0 0.00 0.00 0.00 64 1010.4
20260904224550 81 0 0.0 4.0 0.00 0.00 0.00 63 1010.4
20260904223054 82 0 0.0 4.0 0.00 0.00 0.00 62 1010.8
20260904221553 82 257 0.0 7.0 0.00 0.00 0.00 61 1010.7
20260904220049 83 0 0.0 7.0 0.00 0.00 0.00 59 1010.4
20260904214557 83 0 0.0 1.0 0.00 0.00 0.00 60 1010.3
20260904213054 83 277 1.0 14.0 0.00 0.00 0.00 58 1010.3
20260904211600 83 259 4.0 14.0 0.00 0.00 0.00 58 1010.3
20260904210049 85 0 0.0 7.0 0.00 0.00 0.00 59 1010.4
20260904204601 84 0 1.0 11.0 0.00 0.00 0.00 59 1010.7
20260904203053 84 263 2.0 9.0 0.00 0.00 0.00 59 1010.6
20260904201555 84 252 2.0 9.0 0.00 0.00 0.00 61 1010.9
20260904200106 84 250 4.0 13.0 0.00 0.00 0.00 61 1010.8
20260904194603 85 0 0.0 10.0 0.00 0.00 0.00 62 1010.8
20260904193105 85 0 0.0 3.0 0.00 0.00 0.00 61 1011.1
20260904191551 84 0 4.0 12.0 0.00 0.00 0.00 61 1011.0
20260904184605 82 0 0.0 3.0 0.00 0.00 0.00 65 1011.4
20260904183053 83 0 0.0 5.0 0.00 0.00 0.00 63 1011.5
20260904181549 83 258 0.0 3.0 0.00 0.00 0.00 65 1011.3
20260904180111 83 0 1.0 10.0 0.00 0.00 0.00 64 1011.4
20260904174602 84 0 0.0 5.0 0.00 0.00 0.00 60 1011.1
20260904173059 83 0 0.0 7.0 0.00 0.00 0.00 64 1011.0
20260904171602 82 0 0.0 3.0 0.00 0.00 0.00 63 1011.0
20260904164604 81 0 1.0 8.0 0.00 0.00 0.00 65 1011.3
20260904163100 82 265 1.0 11.0 0.00 0.00 0.00 67 1011.2
20260904161603 81 264 1.0 8.0 0.00 0.00 0.00 67 1011.3
20260904160059 81 352 1.0 7.0 0.00 0.00 0.00 66 1011.5
20260904154558 81 0 0.0 4.0 0.00 0.00 0.00 68 1011.4
20260904153101 81 0 1.0 4.0 0.00 0.00 0.00 68 1011.6
20260904151603 81 0 0.0 3.0 0.00 0.00 0.00 70 1011.7
20260904150056 81 0 0.0 3.0 0.00 0.00 0.00 72 1011.7
20260904144555 81 0 1.0 8.0 0.00 0.00 0.00 71 1011.7
20260904143104 80 0 0.0 3.0 0.00 0.00 0.00 75 1011.6
20260904141619 80 0 0.0 3.0 0.00 0.00 0.00 77 1011.7
20260904140059 78 0 0.0 3.0 0.00 0.00 0.00 81 1011.6
20260904134557 78 0 0.0 3.0 0.00 0.00 0.00 83 1011.6
20260904133052 77 0 0.0 1.0 0.00 0.00 0.00 84 1011.6
20260904131632 76 0 0.0 1.0 0.00 0.00 0.00 87 1011.7
20260904130058 76 0 0.0 1.0 0.00 0.00 0.00 87 1011.7
20260904124558 76 0 0.0 1.0 0.00 0.00 0.00 88 1011.7
20260904123108 74 0 0.0 1.0 0.00 0.00 0.00 92 1011.8
20260904121552 73 0 0.0 6.0 0.00 0.00 0.00 94 1011.6
20260904120051 72 0 0.0 0.0 0.00 0.00 0.00 95 1011.7